Location: Karcze
(52.0945°N, 22.4786°E)
Time: 22:50:09
(UTC+00:00)

Transit 4A - Pass Details

Date: 31 July 2021
Orbit: 871 x 974 km, 66.8° (Epoch: 18 September)

Event Time Altitude Azimuth Distance (km) Brightness Sun altitude
Rises 01:57:55 0° 278° (W) 3,473 10.5 -7.2°
Reaches altitude 10° 02:01:00 10° 294° (WNW) 2,529 9.9 -6.9°
Maximum altitude 02:05:27 22° 344° (NNW) 1,823 9.8 -6.3°
Drops below altitude 10° 02:09:55 10° 34° (NE) 2,533 11.7 -5.8°
Sets 02:13:01 0° 50° (NE) 3,480 13.9 -5.5°
